| time (UTC) | temp F | wind direction | speed MPH | gust MPH | rain 1hr in | rain 24hr in | rain mn in | humidity % | barometer mb |
| 20260902104505 | 76 | 217 | 4.0 | 9.0 | 0.00 | 0.01 | 0.00 | 94 | 1010.8 |
| 20260902103003 | 76 | 194 | 4.0 | 7.0 | 0.00 | 0.01 | 0.00 | 94 | 1010.6 |
| 20260902101501 | 76 | 186 | 5.0 | 7.0 | 0.00 | 0.01 | 0.00 | 94 | 1010.4 |
| 20260902100101 | 76 | 164 | 4.0 | 7.0 | 0.00 | 0.01 | 0.00 | 94 | 1010.4 |
| 20260902094559 | 76 | 149 | 5.0 | 9.0 | 0.00 | 0.03 | 0.00 | 93 | 1010.3 |
| 20260902093057 | 76 | 181 | 4.0 | 11.0 | 0.00 | 0.03 | 0.00 | 94 | 1010.2 |
| 20260902091557 | 76 | 169 | 6.0 | 11.0 | 0.00 | 0.03 | 0.00 | 94 | 1010.1 |
| 20260902090056 | 76 | 180 | 6.0 | 11.0 | 0.00 | 0.03 | 0.00 | 94 | 1010.2 |
| 20260902084558 | 76 | 193 | 6.0 | 11.0 | 0.00 | 0.07 | 0.00 | 93 | 1010.3 |
| 20260902083052 | 76 | 198 | 5.0 | 9.0 | 0.00 | 0.07 | 0.00 | 94 | 1010.4 |
| 20260902081554 | 76 | 212 | 6.0 | 9.0 | 0.00 | 0.07 | 0.00 | 94 | 1010.5 |
| 20260902080048 | 76 | 153 | 4.0 | 8.0 | 0.00 | 0.07 | 0.00 | 94 | 1010.6 |
| 20260902074606 | 76 | 191 | 1.0 | 4.0 | 0.00 | 0.08 | 0.00 | 94 | 1010.8 |
| 20260902073044 | 76 | 150 | 4.0 | 7.0 | 0.00 | 0.08 | 0.00 | 94 | 1011.0 |
| 20260902071542 | 76 | 169 | 1.0 | 7.0 | 0.00 | 0.08 | 0.00 | 94 | 1011.1 |
| 20260902070041 | 76 | 151 | 2.0 | 7.0 | 0.00 | 0.08 | 0.00 | 93 | 1011.2 |
| 20260902064539 | 76 | 160 | 2.0 | 7.0 | 0.00 | 0.08 | 0.00 | 94 | 1011.3 |
| 20260902063058 | 76 | 174 | 2.0 | 7.0 | 0.00 | 0.08 | 0.00 | 94 | 1011.4 |
| 20260902061535 | 76 | 143 | 2.0 | 6.0 | 0.00 | 0.08 | 0.00 | 94 | 1011.7 |
| 20260902060036 | 76 | 143 | 3.0 | 6.0 | 0.00 | 0.08 | 0.00 | 93 | 1011.9 |
| 20260902054535 | 76 | 154 | 2.0 | 7.0 | 0.00 | 0.08 | 0.00 | 93 | 1012.1 |
| 20260902053031 | 76 | 137 | 4.0 | 8.0 | 0.00 | 0.08 | 0.00 | 93 | 1012.3 |
| 20260902051539 | 76 | 125 | 5.0 | 7.0 | 0.00 | 0.08 | 0.00 | 93 | 1012.4 |
| 20260902050032 | 76 | 148 | 3.0 | 8.0 | 0.00 | 0.08 | 0.00 | 92 | 1012.5 |
| 20260902044529 | 76 | 140 | 4.0 | 9.0 | 0.00 | 0.08 | 0.00 | 93 | 1012.5 |
| 20260902043029 | 77 | 157 | 6.0 | 9.0 | 0.00 | 0.08 | 0.00 | 93 | 1012.4 |
| 20260902021525 | 77 | 131 | 6.0 | 11.0 | 0.00 | 0.10 | 0.00 | 92 | 1011.8 |
| 20260902020021 | 77 | 137 | 7.0 | 11.0 | 0.00 | 0.10 | 0.00 | 92 | 1011.7 |
| 20260902014527 | 77 | 141 | 3.0 | 10.0 | 0.00 | 0.10 | 0.00 | 93 | 1011.5 |
| 20260902013020 | 77 | 155 | 4.0 | 7.0 | 0.00 | 0.10 | 0.00 | 93 | 1011.4 |
| 20260902011521 | 77 | 139 | 4.0 | 9.0 | 0.00 | 0.10 | 0.00 | 92 | 1011.1 |
| 20260902010019 | 77 | 139 | 5.0 | 10.0 | 0.00 | 0.10 | 0.00 | 92 | 1011.0 |
| 20260902004527 | 77 | 131 | 5.0 | 9.0 | 0.00 | 0.10 | 0.00 | 92 | 1010.9 |